FW9022 Weather Reports


Display with metric or nautical units.
time (UTC)temp
F
wind
direction
speed
MPH
gust
MPH
rain 1hr
in
rain 24hr
in
rain mn
in
humidity
%
barometer
mb
20260504150835 63 46 1.0 3.0 0.00 0.00 0.00 49 1017.4
20260504140838 60 205 0.0 1.0 0.00 0.00 0.00 56 1017.5
20260504081834 37 109 0.0 0.0 0.00 0.00 0.00 92 1016.9
20260504080840 37 109 0.0 0.0 0.00 0.00 0.00 92 1016.4
20260504045823 41 109 0.0 0.0 0.00 0.00 0.00 88 1017.7
20260504044822 42 109 0.0 0.0 0.00 0.00 0.00 87 1017.7
20260504043817 42 109 0.0 0.0 0.00 0.00 0.00 87 1017.6
20260504042852 42 109 0.0 0.0 0.00 0.00 0.00 86 1017.4
20260504041826 43 109 0.0 0.0 0.00 0.00 0.00 86 1017.4
20260504040854 43 360 0.0 0.0 0.00 0.00 0.00 86 1016.9
20260504035833 43 5 0.0 0.0 0.00 0.00 0.00 85 1017.2
20260504034828 44 5 0.0 0.0 0.00 0.00 0.00 84 1017.2
20260504033822 44 5 0.0 0.0 0.00 0.00 0.00 84 1017.1
20260504032821 44 5 0.0 0.0 0.00 0.00 0.00 83 1017.5
20260504031834 45 5 0.0 0.0 0.00 0.00 0.00 82 1017.5
20260504030840 45 5 0.0 0.0 0.00 0.00 0.00 82 1016.6
20260504025824 46 5 0.0 0.0 0.00 0.00 0.00 80 1016.9
20260504024817 46 5 0.0 0.0 0.00 0.00 0.00 79 1016.9
20260504023831 47 360 0.0 0.0 0.00 0.00 0.00 79 1017.6
20260504022826 47 360 0.0 0.0 0.00 0.00 0.00 79 1017.5
20260504021824 48 5 0.0 0.0 0.00 0.00 0.00 77 1017.5
20260504020849 49 5 0.0 0.0 0.00 0.00 0.00 75 1016.5
20260504015828 49 5 0.0 0.0 0.00 0.00 0.00 73 1017.0
20260504014827 50 360 0.0 0.0 0.00 0.00 0.00 72 1017.0
20260504013821 51 5 0.0 0.0 0.00 0.00 0.00 70 1016.8
20260504012835 51 5 0.0 0.0 0.00 0.00 0.00 68 1016.5
20260504011849 52 5 0.0 0.0 0.00 0.00 0.00 67 1016.5
20260504010838 53 360 0.0 0.0 0.00 0.00 0.00 63 1016.5
20260504005817 54 5 0.0 0.0 0.00 0.00 0.00 63 1016.3
20260504004851 55 360 0.0 0.0 0.00 0.00 0.00 62 1016.3
20260504003824 57 360 0.0 0.0 0.00 0.00 0.00 57 1016.0
20260504002822 58 5 0.0 0.0 0.00 0.00 0.00 56 1015.6
20260504001837 59 360 0.0 1.0 0.00 0.00 0.00 49 1015.6
20260504000842 59 360 0.0 2.0 0.00 0.00 0.00 49 1015.3
20260503235826 59 360 0.0 3.0 0.00 0.00 0.00 48 1015.2
20260503234820 60 360 0.0 3.0 0.00 0.00 0.00 47 1015.2
20260503233835 61 360 1.0 3.0 0.00 0.00 0.00 46 1016.0
20260503232829 61 360 2.0 4.0 0.00 0.00 0.00 45 1015.8
20260503231828 62 24 0.0 4.0 0.00 0.00 0.00 44 1015.8
20260503230832 62 60 2.0 5.0 0.00 0.00 0.00 43 1015.0
20260503225832 62 13 2.0 4.0 0.00 0.00 0.00 43 1014.9
20260503224845 63 61 1.0 6.0 0.00 0.00 0.00 42 1014.9
20260503223823 63 9 0.0 2.0 0.00 0.00 0.00 43 1014.9
20260503222817 63 349 2.0 5.0 0.00 0.00 0.00 41 1014.9
20260503221851 63 51 1.0 4.0 0.00 0.00 0.00 40 1014.9
20260503220840 63 106 0.0 3.0 0.00 0.00 0.00 39 1015.0
20260503215820 63 346 0.0 3.0 0.00 0.00 0.00 40 1015.1
20260503214834 63 67 3.0 5.0 0.00 0.00 0.00 40 1015.1
20260503213828 63 96 1.0 4.0 0.00 0.00 0.00 39 1015.2
20260503212826 63 13 1.0 6.0 0.00 0.00 0.00 39 1015.2
20260503211820 64 350 0.0 4.0 0.00 0.00 0.00 39 1015.2
20260503210845 64 322 0.0 3.0 0.00 0.00 0.00 40 1015.3
20260503205829 64 54 1.0 4.0 0.00 0.00 0.00 40 1015.6
20260503204823 64 171 0.0 6.0 0.00 0.00 0.00 39 1015.6
20260503203837 64 65 0.0 2.0 0.00 0.00 0.00 39 1015.7
20260503202831 64 59 1.0 9.0 0.00 0.00 0.00 39 1015.8
20260503201829 64 311 0.0 6.0 0.00 0.00 0.00 38 1015.8
20260503200854 63 119 0.0 4.0 0.00 0.00 0.00 39 1016.1
20260503195832 63 46 2.0 4.0 0.00 0.00 0.00 39 1016.3
20260503194826 63 84 0.0 4.0 0.00 0.00 0.00 40 1016.3
20260503193825 64 67 2.0 4.0 0.00 0.00 0.00 39 1017.1
20260503192819 63 111 1.0 3.0 0.00 0.00 0.00 41 1016.5
20260503191833 63 35 1.0 4.0 0.00 0.00 0.00 41 1016.5
20260503190842 62 72 0.0 4.0 0.00 0.00 0.00 41 1016.8
20260503185821 62 211 1.0 5.0 0.00 0.00 0.00 40 1016.9
20260503184835 62 80 0.0 5.0 0.00 0.00 0.00 40 1016.9
20260503183828 61 40 1.0 4.0 0.00 0.00 0.00 40 1016.9
20260503182826 61 57 0.0 5.0 0.00 0.00 0.00 41 1017.1
20260503181820 61 69 1.0 6.0 0.00 0.00 0.00 42 1017.1
20260503180845 61 360 0.0 4.0 0.00 0.00 0.00 42 1017.4
20260503175829 61 300 1.0 4.0 0.00 0.00 0.00 42 1017.4
20260503174824 60 260 1.0 4.0 0.00 0.00 0.00 42 1017.4
20260503173837 59 60 3.0 6.0 0.00 0.00 0.00 44 1017.8
20260503172832 58 40 1.0 6.0 0.00 0.00 0.00 44 1018.3
20260503171831 58 46 2.0 6.0 0.00 0.00 0.00 46 1018.3
20260503170855 58 18 3.0 6.0 0.00 0.00 0.00 46 1018.2